TimeEDT,TemperatureF,Dew PointF,Humidity,Sea Level PressureIn,VisibilityMPH,Wind Direction,Wind SpeedMPH,Gust SpeedMPH,PrecipitationIn,Events,Conditions,WindDirDegrees,DateUTC
12:54 AM,57.0,51.1,81,29.90,10.0,WNW,5.8,-,N/A,,Scattered Clouds,300,2012-09-30 04:54:00
1:54 AM,55.0,50.0,83,29.89,10.0,Calm,Calm,-,N/A,,Clear,0,2012-09-30 05:54:00
2:54 AM,53.1,48.9,86,29.88,10.0,Calm,Calm,-,N/A,,Clear,0,2012-09-30 06:54:00
3:54 AM,55.0,50.0,83,29.88,10.0,WNW,3.5,-,N/A,,Clear,290,2012-09-30 07:54:00
4:54 AM,55.0,48.9,80,29.88,10.0,NW,3.5,-,N/A,,Clear,320,2012-09-30 08:54:00
5:54 AM,54.0,48.9,83,29.88,10.0,Calm,Calm,-,N/A,,Clear,0,2012-09-30 09:54:00
6:54 AM,54.0,48.9,83,29.88,10.0,WNW,3.5,-,N/A,,Clear,290,2012-09-30 10:54:00
7:54 AM,55.0,50.0,83,29.88,10.0,NNW,4.6,-,N/A,,Clear,340,2012-09-30 11:54:00
8:54 AM,57.9,50.0,75,29.89,10.0,NNW,4.6,-,N/A,,Clear,330,2012-09-30 12:54:00
9:54 AM,62.1,51.1,67,29.88,10.0,Calm,Calm,-,N/A,,Clear,0,2012-09-30 13:54:00
10:54 AM,64.9,50.0,58,29.86,10.0,West,3.5,-,N/A,,Clear,280,2012-09-30 14:54:00
11:54 AM,66.0,48.0,52,29.85,10.0,WNW,10.4,-,N/A,,Scattered Clouds,300,2012-09-30 15:54:00
12:54 PM,64.9,46.0,50,29.85,10.0,WNW,9.2,-,N/A,,Mostly Cloudy,290,2012-09-30 16:54:00
1:54 PM,64.9,48.0,54,29.83,10.0,WNW,5.8,-,N/A,,Overcast,290,2012-09-30 17:54:00
2:26 PM,66.2,48.2,52,29.83,2.0,West,12.7,16.1,N/A,,Haze,270,2012-09-30 18:26:00
2:36 PM,66.2,48.2,52,29.83,10.0,West,12.7,-,N/A,,Mostly Cloudy,280,2012-09-30 18:36:00
2:54 PM,66.0,48.9,54,29.82,10.0,Variable,3.5,-,N/A,,Mostly Cloudy,0,2012-09-30 18:54:00
3:54 PM,66.0,48.9,54,29.81,10.0,WNW,6.9,-,N/A,,Mostly Cloudy,290,2012-09-30 19:54:00
4:54 PM,68.0,45.0,43,29.80,10.0,West,9.2,-,N/A,,Clear,280,2012-09-30 20:54:00
5:54 PM,64.9,46.9,52,29.81,10.0,NW,6.9,-,N/A,,Scattered Clouds,310,2012-09-30 21:54:00
6:54 PM,62.1,46.9,58,29.82,10.0,WNW,3.5,-,N/A,,Mostly Cloudy,290,2012-09-30 22:54:00
7:54 PM,60.8,46.4,59,29.84,10.0,West,11.5,-,N/A,,Clear,280,2012-09-30 23:54:00
8:54 PM,60.8,46.4,59,29.86,10.0,West,8.1,-,N/A,,Mostly Cloudy,270,2012-10-01 00:54:00
9:54 PM,57.2,46.4,67,29.88,10.0,West,4.6,-,N/A,,Clear,260,2012-10-01 01:54:00
10:54 PM,55.9,46.9,72,29.88,10.0,WSW,4.6,-,N/A,,Clear,240,2012-10-01 02:54:00
11:54 PM,53.6,46.4,77,29.88,10.0,WSW,4.6,-,N/A,,Clear,250,2012-10-01 03:54:00